User: anonymous   Login
Location: Unspecified
(0.0000°N, 0.0000°E)
Time: 00:53:10
(UTC+00:00)
Language:

STPSAT 1 - Orbit

View from above orbital plane
View from above orbital plane
View from above satellite
View from above satellite

Ground track
Ground track

The orbit data is extracted from the following two-line orbital elements,

1 30775U 07006D   21023.56582727  .00001642  00000-0  59494-4 0  9993
2 30775  35.4525 130.3600 0003537 234.5233 125.5162 15.28588858768888
Epoch (UTC): 23 January 2021 13:34:47
Eccentricity: 0.0003537
inclination: 35.4525°
perigee height: 477 km
apogee height: 482 km
right ascension of ascending node: 130.3600°
argument of perigee: 234.5233°
revolutions per day: 15.28588858
mean anomaly at epoch: 125.5162°
orbit number at epoch: 76888

The dashed part of the orbit path shows where the satellite is in the earth's shadow,  

DLR